Showing default

BIRKELAND, 55015

Orbit data source: Space-Track

BIRKELAND, 55015 is a Norwegian payload satellite in SSO that was launched on Tue, 03 Jan 2023 UTC via an FALCON 9 launch vehicle from the Air Force Eastern Test Range (AFETR). Payload-class satellites include a variety of spacecraft equipped with specific instruments for various scientific and technological missions. These include communications satellites like Starlink; space stations such as the ISS; scientific satellites like the Hubble; Earth observation satellites from companies like Planet Labs, Umbra, and HawkEye 360; GPS; miniature CubeSats for education and research; and military/defense satellites.

Loading next visibility...
Identifier
55015, 2023-001G
Orbit
SSO
Country
Flag of NONO / NOR
Related business
Manufacturer
NanoAvionics
Mission
Operational Civil Sigint
Bus & Motor
CUBESAT 6U, Unknown motor
Mass
10 kg wet, ~10 kg dry
Launch date (UTC)
2023-01-03 (4 years ago)
Launch vehicle
FALCON 9
Launch site
Air Force Eastern Test Range (AFETR)
Object type
Payload
Rocket body
Debris
Shape & HBR
Box + 2 Pan, 0.2 m
Radar Cross Section
0.080 m², Medium (>0.1 m² and < 1m²)

Expand to show TLE details & history
Last TLE update: 17 hours ago

TLE from 17 hours ago
0 BIRKELAND
1 55015U 23001G   26206.60325572  .00007890  00000-0  19541-3 0  9995
2 55015  97.3331 274.6828 0005225 341.8175  18.2884 15.40677464198265
Epoch: 2026-07-25T14:28Z
TLE epoch observation values (Epoch: 2026-07-25T14:28:41.294Z)
Latitude
0.00001°
Longitude
114.19757°
Altitude
443.844 km
Speed
7.648 km/s
True Right ascension
18h 18m 43s
True Declination
0° 00' 00"
Sunlit
Object was in full shadow at epoch
Visualization orbit readout
Latitude
Unknown
Longitude
Unknown
Altitude
Unknown
Speed
Unknown
Apparent Right ascension
Unknown
Apparent Declination
Unknown
Sunlit
N/A
Visualization observer readout
Local Sidereal Time
21:10:37
Azimuth
Unknown
Elevation
Unknown
Doppler factor
Unknown
Orbital elements
Apogee altitude
444.607 km
Perigee altitude
437.481 km
Semi-major axis
6,819.181 km
Eccentricity
0.00052
Inclination
97.3331°
RAAN
274.6828°
Arg. of periapsis
341.8175°
True anomaly
18.3072°
Mean anomaly
18.2884°
Eccentric anomaly
18.2978°
Mean motion
3.85429 °/min
Orbital period
93.4 mins
BSTAR
0.00019541
Loading maneuver chart data...
Computing Atmospheric mass density...

Documentation

Showing up to 5 results
|